Location: Seven Kings
(51.5667°N, 0.1000°E)
Time: 11:19:08
(UTC+00:00)

Cosmos 1943 Rocket - Pass Details

Date: 29 October 2020
Orbit: 813 x 842 km, 71.0° (Epoch: 25 November)

Event Time Altitude Azimuth Distance (km) Brightness Sun altitude
Rises 17:56:54 0° 276° (W) 3,350 7.1 -12.8°
Reaches altitude 10° 18:00:28 10° 299° (WNW) 2,416 5.5 -13.4°
Maximum altitude 18:03:35 15° 334° (NNW) 2,080 4.5 -13.9°
Drops below altitude 10° 18:06:41 10° 9° (N) 2,416 4.4 -14.4°
Enters shadow 18:09:39 - 29° (NNE) 3,165 4.9 -14.8°
